NKS1120 KDFW-MMUN

Flight info

Callsign NKS1120
Flight time 2h 16m
Altitude 39000
Route DARTZ9 TNV DCT SBI A766 KEHLI UL209 BETAS DCT VOMAR VOMAR1A
Aircraft A320/M-SDE3FGHIRWY/LB1

Departure

Time 2026-05-07 05:00
Airport Dallas Fort Worth International Airport (KDFW)

Arrival

Time 2026-05-07 07:17
Airport Cancún International Airport (MMUN)
Time Latitude Longitude Altitude Speed Heading
2026-05-07 04:36 32.88844 -97.03588 571 ft 0 kts 316°
2026-05-07 04:45 32.88842 -97.03585 571 ft 2 kts 316°
2026-05-07 04:45 32.88832 -97.03571 571 ft 2 kts 295°
2026-05-07 04:46 32.88827 -97.03554 572 ft 2 kts 275°
2026-05-07 04:46 32.88828 -97.03536 572 ft 2 kts 254°
2026-05-07 04:46 32.88834 -97.03520 572 ft 2 kts 233°
2026-05-07 04:46 32.88845 -97.03508 573 ft 2 kts 212°
2026-05-07 04:47 32.88853 -97.03503 573 ft 2 kts 208°
2026-05-07 04:47 32.88866 -97.03494 573 ft 2 kts 207°
2026-05-07 04:47 32.88880 -97.03486 573 ft 1 kts 205°
2026-05-07 04:47 32.88884 -97.03484 573 ft 0 kts 204°
2026-05-07 04:53 32.88845 -97.03508 573 ft 14 kts 213°
2026-05-07 04:53 32.88741 -97.03587 571 ft 14 kts 187°
2026-05-07 04:53 32.88645 -97.03565 572 ft 14 kts 189°
2026-05-07 04:54 32.88603 -97.03668 570 ft 18 kts 270°
2026-05-07 04:54 32.88603 -97.03855 569 ft 24 kts 270°
2026-05-07 04:54 32.88604 -97.04054 568 ft 24 kts 270°
2026-05-07 04:54 32.88605 -97.04278 572 ft 26 kts 270°
2026-05-07 04:55 32.88606 -97.04489 576 ft 24 kts 271°
2026-05-07 04:55 32.88606 -97.04710 578 ft 23 kts 265°
2026-05-07 04:55 32.88485 -97.04800 576 ft 20 kts 199°
2026-05-07 04:55 32.88338 -97.04808 573 ft 23 kts 180°
2026-05-07 04:56 32.88167 -97.04809 573 ft 23 kts 180°
2026-05-07 04:56 32.88002 -97.04810 570 ft 20 kts 180°
2026-05-07 04:56 32.87910 -97.04843 570 ft 13 kts 256°
2026-05-07 04:56 32.87909 -97.04954 569 ft 8 kts 271°
2026-05-07 04:57 32.87910 -97.04965 568 ft 0 kts 271°
2026-05-07 04:57 32.87910 -97.04974 568 ft 2 kts 271°
2026-05-07 04:58 32.87911 -97.05031 567 ft 13 kts 271°
2026-05-07 04:58 32.87971 -97.05093 567 ft 5 kts 359°
2026-05-07 04:58 32.87973 -97.05093 567 ft 0 kts 359°
2026-05-07 04:59 32.87997 -97.05093 568 ft 16 kts 360°
2026-05-07 04:59 32.88359 -97.05091 574 ft 85 kts
2026-05-07 05:00 32.89156 -97.05089 592 ft 140 kts
2026-05-07 05:00 32.90185 -97.05130 1040 ft 147 kts 359°
2026-05-07 05:00 32.91197 -97.05198 1607 ft 148 kts 359°
2026-05-07 05:00 32.92223 -97.05270 2177 ft 149 kts 359°
2026-05-07 05:01 32.93280 -97.05336 2570 ft 157 kts 359°
2026-05-07 05:01 32.94415 -97.05399 2847 ft 171 kts 358°
2026-05-07 05:01 32.95634 -97.05680 3133 ft 186 kts 344°
2026-05-07 05:01 32.96923 -97.06240 3406 ft 205 kts 340°
2026-05-07 05:02 32.98328 -97.06881 3670 ft 227 kts 341°
2026-05-07 05:02 32.99810 -97.07771 4097 ft 246 kts 321°
2026-05-07 05:02 33.00817 -97.09405 4776 ft 255 kts 293°
2026-05-07 05:02 33.01070 -97.11496 5600 ft 259 kts 270°
2026-05-07 05:03 33.00945 -97.13620 6416 ft 259 kts 268°
2026-05-07 05:03 33.00789 -97.15765 7205 ft 260 kts 268°
2026-05-07 05:03 33.00600 -97.17919 7975 ft 262 kts 265°
2026-05-07 05:03 33.00380 -97.20098 8568 ft 271 kts 265°
2026-05-07 05:04 33.00122 -97.22337 9308 ft 274 kts 258°
2026-05-07 05:04 32.99440 -97.24360 10012 ft 279 kts 239°
2026-05-07 05:04 32.98189 -97.26135 10621 ft 287 kts 227°
2026-05-07 05:04 32.96712 -97.27782 10920 ft 304 kts 220°
2026-05-07 05:05 32.94808 -97.28996 11330 ft 319 kts 199°
2026-05-07 05:05 32.92590 -97.29313 12026 ft 323 kts 181°
2026-05-07 05:05 32.90355 -97.29196 12725 ft 324 kts 180°
2026-05-07 05:05 32.88094 -97.29036 13309 ft 327 kts 180°
2026-05-07 05:06 32.85892 -97.28891 13867 ft 330 kts 181°
2026-05-07 05:06 32.83570 -97.28753 14447 ft 333 kts 181°
2026-05-07 05:06 32.81233 -97.28624 15013 ft 335 kts 181°
2026-05-07 05:06 32.78896 -97.28256 15537 ft 344 kts 169°
2026-05-07 05:07 32.76633 -97.27108 16063 ft 355 kts 152°
2026-05-07 05:07 32.74622 -97.25352 16583 ft 361 kts 146°
2026-05-07 05:07 32.72650 -97.23428 17058 ft 366 kts 144°
2026-05-07 05:07 32.70663 -97.21465 17521 ft 370 kts 145°
2026-05-07 05:08 32.68657 -97.19495 17994 ft 373 kts 145°
2026-05-07 05:08 32.66650 -97.17542 18442 ft 377 kts 145°
2026-05-07 05:08 32.64581 -97.15542 18866 ft 381 kts 146°
2026-05-07 05:08 32.62534 -97.13570 19273 ft 385 kts 146°
2026-05-07 05:09 32.60413 -97.11532 19687 ft 390 kts 145°
2026-05-07 05:09 32.58288 -97.09493 20091 ft 394 kts 145°
2026-05-07 05:09 32.56158 -97.07449 20484 ft 398 kts 145°
2026-05-07 05:09 32.53993 -97.05374 20859 ft 402 kts 145°
2026-05-07 05:10 32.51796 -97.03270 21235 ft 406 kts 145°
2026-05-07 05:10 32.49596 -97.01163 21608 ft 410 kts 145°
2026-05-07 05:10 32.47348 -96.99013 21978 ft 414 kts 144°
2026-05-07 05:10 32.45079 -96.96844 22340 ft 418 kts 144°
2026-05-07 05:11 32.42797 -96.94662 22695 ft 421 kts 144°
2026-05-07 05:11 32.40510 -96.92477 23051 ft 425 kts 144°
2026-05-07 05:11 32.38192 -96.90263 23407 ft 428 kts 144°
2026-05-07 05:11 32.35886 -96.88064 23752 ft 431 kts 144°
2026-05-07 05:12 32.33535 -96.85824 24096 ft 434 kts 145°
2026-05-07 05:12 32.31168 -96.83579 24431 ft 437 kts 147°
2026-05-07 05:12 32.28640 -96.81568 24755 ft 435 kts 155°
2026-05-07 05:12 32.25917 -96.80015 25082 ft 432 kts 165°
2026-05-07 05:13 32.23054 -96.78825 25419 ft 432 kts 168°
2026-05-07 05:13 32.20305 -96.77786 25725 ft 434 kts 169°
2026-05-07 05:13 32.17415 -96.76704 26037 ft 437 kts 168°
2026-05-07 05:13 32.14468 -96.75588 26356 ft 440 kts 168°
2026-05-07 05:14 32.11572 -96.74478 26665 ft 442 kts 168°
2026-05-07 05:14 32.08613 -96.73334 26973 ft 445 kts 168°
2026-05-07 05:14 32.05664 -96.72190 27273 ft 448 kts 168°
2026-05-07 05:14 32.02939 -96.71132 27544 ft 450 kts 168°
2026-05-07 05:15 32.00028 -96.70001 27827 ft 453 kts 168°
2026-05-07 05:15 31.97044 -96.68842 28112 ft 455 kts 168°
2026-05-07 05:15 31.94048 -96.67680 28392 ft 457 kts 168°
2026-05-07 05:15 31.91014 -96.66505 28671 ft 460 kts 168°
2026-05-07 05:16 31.88160 -96.65400 28921 ft 462 kts 168°
2026-05-07 05:16 31.85283 -96.64288 29165 ft 464 kts 169°
2026-05-07 05:16 31.82226 -96.63107 29421 ft 466 kts 169°
2026-05-07 05:16 31.79183 -96.61932 29665 ft 468 kts 169°
2026-05-07 05:17 31.76053 -96.60724 29910 ft 471 kts 169°
2026-05-07 05:17 31.72931 -96.59519 30150 ft 473 kts 169°
2026-05-07 05:17 31.69968 -96.58376 30373 ft 475 kts 169°
2026-05-07 05:17 31.66802 -96.57156 30607 ft 477 kts 169°
2026-05-07 05:18 31.63684 -96.55956 30829 ft 479 kts 169°
2026-05-07 05:18 31.60466 -96.54718 31055 ft 481 kts 169°
2026-05-07 05:18 31.57296 -96.53499 31273 ft 483 kts 169°
2026-05-07 05:18 31.54151 -96.52290 31485 ft 485 kts 169°
2026-05-07 05:19 31.50908 -96.51048 31697 ft 487 kts 169°
2026-05-07 05:19 31.47658 -96.49824 31898 ft 489 kts 169°
2026-05-07 05:19 31.44653 -96.48700 32083 ft 491 kts 169°
2026-05-07 05:19 31.41391 -96.47482 32286 ft 492 kts 169°
2026-05-07 05:20 31.38126 -96.46262 32480 ft 494 kts 169°
2026-05-07 05:20 31.34843 -96.45033 32668 ft 496 kts 169°
2026-05-07 05:20 31.31610 -96.43825 32846 ft 498 kts 170°
2026-05-07 05:20 31.28430 -96.42635 33050 ft 499 kts 170°
2026-05-07 05:21 31.25057 -96.41373 33315 ft 498 kts 170°
2026-05-07 05:21 31.18528 -96.38934 33805 ft 498 kts 170°
2026-05-07 05:21 31.15219 -96.37701 34038 ft 498 kts 170°
2026-05-07 05:22 31.11912 -96.36471 34272 ft 498 kts 170°
2026-05-07 05:22 31.08630 -96.35250 34514 ft 497 kts 170°
2026-05-07 05:22 31.05297 -96.34011 34750 ft 497 kts 171°
2026-05-07 05:22 31.02022 -96.32794 34972 ft 496 kts 171°
2026-05-07 05:23 30.98713 -96.31564 35180 ft 495 kts 171°
2026-05-07 05:23 30.95432 -96.30345 35367 ft 495 kts 171°
2026-05-07 05:23 30.92164 -96.29134 35539 ft 496 kts 171°
2026-05-07 05:23 30.88896 -96.27923 35702 ft 496 kts 172°
2026-05-07 05:24 30.86470 -96.27025 35809 ft 496 kts 172°
2026-05-07 05:24 30.83256 -96.25836 35965 ft 496 kts 172°
2026-05-07 05:24 30.79954 -96.24616 36134 ft 496 kts 172°
2026-05-07 05:24 30.76729 -96.23424 36312 ft 495 kts 172°
2026-05-07 05:25 30.73432 -96.22207 36465 ft 495 kts 172°
2026-05-07 05:25 30.70138 -96.20992 36588 ft 495 kts 172°
2026-05-07 05:25 30.66852 -96.19781 36721 ft 495 kts 172°
2026-05-07 05:25 30.63564 -96.18569 36873 ft 495 kts 172°
2026-05-07 05:26 30.60323 -96.17378 36931 ft 497 kts 172°
2026-05-07 05:26 30.53702 -96.14942 37183 ft 497 kts 172°
2026-05-07 05:26 30.50436 -96.13738 37374 ft 495 kts 172°
2026-05-07 05:27 30.47135 -96.12526 37520 ft 494 kts 172°
2026-05-07 05:27 30.43997 -96.11374 37635 ft 494 kts 172°
2026-05-07 05:27 30.40630 -96.10141 37747 ft 495 kts 172°
2026-05-07 05:28 30.34248 -96.07151 37918 ft 512 kts 156°
2026-05-07 05:28 30.31328 -96.04752 38008 ft 521 kts 144°
2026-05-07 05:28 30.28849 -96.01855 38097 ft 528 kts 132°
2026-05-07 05:29 30.25416 -95.94988 38273 ft 532 kts 110°
2026-05-07 05:29 30.24246 -95.91029 38390 ft 531 kts 106°
2026-05-07 05:29 30.23209 -95.87142 38490 ft 531 kts 105°
2026-05-07 05:30 30.21026 -95.79036 38683 ft 531 kts 107°
2026-05-07 05:30 30.18711 -95.70894 38867 ft 532 kts 107°
2026-05-07 05:31 30.16350 -95.62785 38990 ft 534 kts 107°
2026-05-07 05:31 30.13960 -95.54632 38996 ft 534 kts 107°
2026-05-07 05:32 30.11586 -95.46549 38997 ft 534 kts 107°
2026-05-07 05:32 30.09206 -95.38464 38995 ft 534 kts 108°
2026-05-07 05:33 30.06889 -95.30602 38988 ft 534 kts 108°
2026-05-07 05:33 30.04494 -95.22514 38984 ft 534 kts 108°
2026-05-07 05:34 30.02102 -95.14451 38980 ft 534 kts 108°
2026-05-07 05:34 29.99679 -95.06307 38977 ft 534 kts 108°
2026-05-07 05:35 29.97272 -94.98231 38976 ft 534 kts 108°
2026-05-07 05:35 29.94869 -94.90192 38972 ft 534 kts 108°
2026-05-07 05:36 29.92472 -94.82192 38965 ft 535 kts 108°
2026-05-07 05:36 29.90046 -94.74113 38955 ft 535 kts 108°
2026-05-07 05:37 29.87615 -94.66035 38948 ft 535 kts 108°
2026-05-07 05:37 29.85175 -94.57950 38949 ft 535 kts 108°
2026-05-07 05:38 29.82722 -94.49845 38952 ft 535 kts 108°
2026-05-07 05:38 29.80266 -94.41752 38954 ft 535 kts 108°
2026-05-07 05:39 29.77810 -94.33675 38952 ft 535 kts 108°
2026-05-07 05:39 29.75671 -94.26655 38955 ft 535 kts 108°
2026-05-07 05:40 29.73200 -94.18571 38955 ft 535 kts 108°
2026-05-07 05:40 29.70573 -94.10502 38950 ft 535 kts 115°
2026-05-07 05:41 29.66724 -94.03270 38949 ft 532 kts 132°
2026-05-07 05:41 29.61405 -93.97313 38951 ft 523 kts 148°
2026-05-07 05:42 29.55554 -93.92411 38950 ft 521 kts 150°
2026-05-07 05:42 29.49666 -93.87523 38949 ft 522 kts 149°
2026-05-07 05:43 29.43828 -93.82584 38949 ft 522 kts 149°
2026-05-07 05:43 29.37984 -93.77610 38949 ft 522 kts 149°
2026-05-07 05:44 29.32175 -93.72666 38950 ft 522 kts 149°
2026-05-07 05:44 29.26334 -93.67703 38949 ft 522 kts 149°
2026-05-07 05:45 29.20462 -93.62722 38949 ft 522 kts 149°
2026-05-07 05:45 29.14638 -93.57789 38949 ft 522 kts 149°
2026-05-07 05:46 29.08783 -93.52837 38951 ft 521 kts 149°
2026-05-07 05:46 29.02938 -93.47901 38952 ft 517 kts 149°
2026-05-07 05:47 28.97152 -93.43021 38951 ft 513 kts 148°
2026-05-07 05:47 28.91426 -93.38197 38951 ft 510 kts 149°
2026-05-07 05:48 28.86022 -93.33654 38945 ft 509 kts 149°
2026-05-07 05:48 28.80277 -93.28833 38949 ft 509 kts 149°
2026-05-07 05:49 28.74584 -93.24062 38949 ft 509 kts 149°
2026-05-07 05:49 28.68875 -93.19287 38949 ft 510 kts 149°
2026-05-07 05:50 28.63171 -93.14516 38949 ft 510 kts 149°
2026-05-07 05:50 28.57417 -93.09712 38949 ft 510 kts 149°
2026-05-07 05:51 28.51688 -93.04936 38949 ft 511 kts 149°
2026-05-07 05:51 28.45964 -93.00172 38948 ft 512 kts 149°
2026-05-07 05:52 28.40189 -92.95369 38949 ft 513 kts 149°
2026-05-07 05:52 28.34444 -92.90599 38949 ft 513 kts 149°
2026-05-07 05:53 28.28649 -92.85790 38948 ft 513 kts 149°
2026-05-07 05:53 28.22880 -92.81016 38949 ft 514 kts 149°
2026-05-07 05:54 28.17099 -92.76235 38949 ft 515 kts 149°
2026-05-07 05:54 28.11323 -92.71462 38950 ft 515 kts 149°
2026-05-07 05:55 28.05570 -92.66718 38952 ft 514 kts 149°
2026-05-07 05:55 27.99766 -92.61943 38953 ft 514 kts 149°
2026-05-07 05:56 27.93999 -92.57198 38956 ft 514 kts 149°
2026-05-07 05:56 27.88670 -92.52824 38954 ft 514 kts 149°
2026-05-07 05:57 27.82892 -92.48084 38955 ft 513 kts 149°
2026-05-07 05:57 27.77126 -92.43363 38955 ft 514 kts 149°
2026-05-07 05:58 27.71321 -92.38615 38955 ft 514 kts 149°
2026-05-07 05:58 27.65528 -92.33881 38952 ft 513 kts 150°
2026-05-07 05:59 27.59737 -92.29160 38956 ft 514 kts 150°
2026-05-07 05:59 27.53957 -92.24451 38956 ft 514 kts 150°
2026-05-07 06:00 27.48109 -92.19690 38956 ft 514 kts 150°
2026-05-07 06:00 27.42358 -92.15018 38955 ft 514 kts 150°
2026-05-07 06:01 27.36547 -92.10303 38956 ft 514 kts 150°
2026-05-07 06:01 27.30733 -92.05588 38956 ft 514 kts 150°
2026-05-07 06:02 27.24930 -92.00892 38955 ft 514 kts 150°
2026-05-07 06:02 27.19118 -91.96193 38955 ft 514 kts 150°
2026-05-07 06:03 27.13346 -91.91534 38956 ft 513 kts 150°
2026-05-07 06:03 27.07555 -91.86871 38956 ft 514 kts 150°
2026-05-07 06:04 27.01721 -91.82179 38959 ft 513 kts 150°
2026-05-07 06:04 26.95996 -91.77577 38960 ft 506 kts 149°
2026-05-07 06:05 26.90298 -91.73006 38960 ft 497 kts 149°
2026-05-07 06:05 26.84707 -91.68523 38957 ft 491 kts 148°
2026-05-07 06:06 26.79179 -91.64094 38956 ft 490 kts 148°
2026-05-07 06:06 26.73614 -91.59642 38957 ft 490 kts 148°
2026-05-07 06:07 26.68073 -91.55215 38959 ft 490 kts 149°
2026-05-07 06:07 26.62528 -91.50792 38960 ft 490 kts 148°
2026-05-07 06:08 26.56976 -91.46368 38962 ft 490 kts 148°
2026-05-07 06:08 26.51452 -91.41972 38964 ft 490 kts 148°
2026-05-07 06:09 26.45850 -91.37518 38965 ft 490 kts 148°
2026-05-07 06:09 26.40301 -91.33112 38963 ft 490 kts 149°
2026-05-07 06:10 26.34770 -91.28726 38964 ft 490 kts 149°
2026-05-07 06:10 26.29219 -91.24331 38965 ft 490 kts 149°
2026-05-07 06:11 26.23634 -91.19913 38965 ft 490 kts 149°
2026-05-07 06:11 26.18103 -91.15541 38965 ft 489 kts 149°
2026-05-07 06:12 26.12536 -91.11147 38965 ft 488 kts 149°
2026-05-07 06:12 26.06984 -91.06770 38965 ft 488 kts 149°
2026-05-07 06:13 26.01480 -91.02437 38965 ft 487 kts 150°
2026-05-07 06:13 25.95926 -90.98069 38965 ft 486 kts 150°
2026-05-07 06:14 25.90401 -90.93729 38965 ft 486 kts 150°
2026-05-07 06:14 25.84910 -90.89423 38965 ft 485 kts 150°
2026-05-07 06:15 25.79395 -90.85102 38965 ft 485 kts 150°
2026-05-07 06:15 25.73851 -90.80763 38965 ft 485 kts 150°
2026-05-07 06:16 25.68333 -90.76449 38965 ft 485 kts 150°
2026-05-07 06:16 25.62821 -90.72144 38965 ft 485 kts 150°
2026-05-07 06:17 25.57267 -90.67812 38965 ft 485 kts 150°
2026-05-07 06:17 25.51724 -90.63493 38965 ft 485 kts 150°
2026-05-07 06:18 25.46220 -90.59210 38965 ft 485 kts 150°
2026-05-07 06:18 25.40712 -90.54929 38965 ft 485 kts 150°
2026-05-07 06:19 25.35200 -90.50648 38965 ft 485 kts 150°
2026-05-07 06:19 25.29670 -90.46360 38965 ft 486 kts 150°
2026-05-07 06:20 25.24122 -90.42062 38965 ft 486 kts 150°
2026-05-07 06:20 25.18562 -90.37759 38965 ft 486 kts 150°
2026-05-07 06:21 25.13047 -90.33495 38962 ft 486 kts 150°
2026-05-07 06:21 25.07536 -90.29246 38966 ft 484 kts 150°
2026-05-07 06:22 25.01984 -90.24971 38966 ft 481 kts 149°
2026-05-07 06:22 24.93830 -90.18690 38965 ft 475 kts 148°
2026-05-07 06:23 24.88379 -90.14490 38964 ft 474 kts 148°
2026-05-07 06:23 24.82976 -90.10336 38965 ft 474 kts 148°
2026-05-07 06:24 24.77584 -90.06197 38965 ft 474 kts 148°
2026-05-07 06:24 24.72162 -90.02040 38965 ft 474 kts 148°
2026-05-07 06:25 24.66782 -89.97920 38965 ft 474 kts 148°
2026-05-07 06:25 24.61363 -89.93774 38965 ft 474 kts 148°
2026-05-07 06:26 24.55920 -89.89623 38964 ft 473 kts 149°
2026-05-07 06:26 24.50190 -89.86217 38964 ft 468 kts 161°
2026-05-07 06:27 24.44022 -89.84142 38965 ft 461 kts 173°
2026-05-07 06:27 24.37717 -89.83397 38966 ft 456 kts 182°
2026-05-07 06:28 24.31349 -89.83108 38965 ft 456 kts 182°
2026-05-07 06:28 24.25069 -89.82813 38965 ft 456 kts 182°
2026-05-07 06:29 24.18711 -89.82494 38965 ft 456 kts 182°
2026-05-07 06:29 24.12365 -89.82169 38965 ft 456 kts 182°
2026-05-07 06:30 24.06034 -89.81843 38965 ft 456 kts 182°
2026-05-07 06:30 23.99714 -89.81517 38965 ft 456 kts 182°
2026-05-07 06:31 23.93400 -89.81192 38965 ft 456 kts 182°
2026-05-07 06:31 23.87174 -89.80871 38964 ft 456 kts 182°
2026-05-07 06:32 23.80839 -89.80545 38965 ft 456 kts 182°
2026-05-07 06:32 23.74511 -89.80220 38965 ft 456 kts 182°
2026-05-07 06:33 23.68151 -89.79885 38965 ft 456 kts 182°
2026-05-07 06:33 23.61793 -89.79549 38965 ft 456 kts 182°
2026-05-07 06:34 23.55454 -89.79213 38965 ft 456 kts 182°
2026-05-07 06:34 23.49115 -89.78878 38965 ft 457 kts 182°
2026-05-07 06:35 23.42720 -89.78540 38965 ft 457 kts 182°
2026-05-07 06:35 23.36382 -89.78206 38965 ft 457 kts 182°
2026-05-07 06:36 23.30025 -89.77871 38965 ft 457 kts 182°
2026-05-07 06:36 23.23703 -89.77537 38965 ft 457 kts 182°
2026-05-07 06:37 23.17355 -89.77203 38965 ft 457 kts 182°
2026-05-07 06:37 23.10993 -89.76869 38965 ft 457 kts 182°
2026-05-07 06:38 23.04682 -89.76537 38965 ft 457 kts 181°
2026-05-07 06:38 22.98288 -89.76207 38965 ft 456 kts 181°
2026-05-07 06:39 22.91930 -89.75878 38965 ft 454 kts 180°
2026-05-07 06:39 22.85637 -89.75545 38965 ft 453 kts 179°
2026-05-07 06:40 22.79301 -89.75199 38964 ft 453 kts 177°
2026-05-07 06:40 22.73210 -89.73555 38963 ft 458 kts 156°
2026-05-07 06:41 22.67946 -89.69612 38964 ft 462 kts 135°
2026-05-07 06:41 22.65882 -89.66920 38964 ft 463 kts 124°
2026-05-07 06:41 22.64315 -89.63895 38962 ft 464 kts 113°
2026-05-07 06:42 22.62231 -89.57265 38956 ft 464 kts 107°
2026-05-07 06:42 22.60335 -89.50584 38942 ft 464 kts 107°
2026-05-07 06:43 22.58398 -89.43904 38927 ft 464 kts 107°
2026-05-07 06:43 22.56450 -89.37277 38915 ft 464 kts 107°
2026-05-07 06:44 22.54479 -89.30608 38905 ft 464 kts 108°
2026-05-07 06:44 22.52557 -89.24125 38901 ft 464 kts 108°
2026-05-07 06:45 22.50592 -89.17509 38915 ft 464 kts 108°
2026-05-07 06:45 22.48604 -89.10827 38945 ft 464 kts 108°
2026-05-07 06:46 22.46627 -89.04194 38983 ft 464 kts 108°
2026-05-07 06:46 22.44636 -88.97517 38861 ft 463 kts 108°
2026-05-07 06:47 22.43659 -88.94245 38181 ft 467 kts 108°
2026-05-07 06:47 22.42644 -88.90848 37232 ft 475 kts 108°
2026-05-07 06:47 22.41613 -88.87405 36360 ft 479 kts 108°
2026-05-07 06:47 22.40586 -88.83974 35601 ft 480 kts 108°
2026-05-07 06:48 22.39563 -88.80559 34864 ft 481 kts 109°
2026-05-07 06:48 22.38524 -88.77096 34076 ft 482 kts 109°
2026-05-07 06:48 22.37486 -88.73644 33270 ft 484 kts 109°
2026-05-07 06:48 22.36457 -88.70219 32483 ft 485 kts 109°
2026-05-07 06:49 22.35413 -88.66745 31693 ft 485 kts 109°
2026-05-07 06:49 22.34367 -88.63273 31052 ft 482 kts 109°
2026-05-07 06:49 22.33333 -88.59841 30516 ft 476 kts 109°
2026-05-07 06:49 22.32312 -88.56454 30017 ft 470 kts 109°
2026-05-07 06:50 22.31303 -88.53112 29536 ft 465 kts 109°
2026-05-07 06:50 22.30300 -88.49792 29060 ft 459 kts 109°
2026-05-07 06:50 22.29313 -88.46529 28589 ft 454 kts 109°
2026-05-07 06:50 22.28336 -88.43303 28119 ft 449 kts 109°
2026-05-07 06:51 22.27376 -88.40133 27658 ft 444 kts 109°
2026-05-07 06:51 22.26421 -88.36981 27199 ft 439 kts 110°
2026-05-07 06:51 22.25505 -88.33963 26756 ft 434 kts 110°
2026-05-07 06:51 22.24568 -88.30876 26301 ft 429 kts 110°
2026-05-07 06:52 22.23637 -88.27814 25845 ft 424 kts 110°
2026-05-07 06:52 22.22718 -88.24793 25393 ft 420 kts 110°
2026-05-07 06:52 22.21823 -88.21850 24948 ft 415 kts 110°
2026-05-07 06:52 22.20921 -88.18888 24497 ft 411 kts 110°
2026-05-07 06:53 22.20028 -88.15958 24048 ft 407 kts 110°
2026-05-07 06:53 22.19149 -88.13075 23601 ft 403 kts 110°
2026-05-07 06:53 22.18269 -88.10195 23155 ft 400 kts 110°
2026-05-07 06:53 22.17399 -88.07345 22709 ft 396 kts 110°
2026-05-07 06:54 22.16541 -88.04538 22267 ft 393 kts 110°
2026-05-07 06:54 22.15689 -88.01753 21826 ft 390 kts 110°
2026-05-07 06:54 22.14837 -87.98967 21383 ft 387 kts 110°
2026-05-07 06:54 22.13899 -87.96258 20929 ft 382 kts 118°
2026-05-07 06:55 22.12514 -87.93829 20483 ft 376 kts 130°
2026-05-07 06:55 22.10744 -87.91788 20047 ft 371 kts 139°
2026-05-07 06:55 22.08848 -87.89909 19608 ft 368 kts 140°
2026-05-07 06:55 22.06972 -87.88088 19175 ft 366 kts 140°
2026-05-07 06:56 22.05083 -87.86248 18738 ft 363 kts 140°
2026-05-07 06:56 22.03212 -87.84415 18299 ft 361 kts 139°
2026-05-07 06:56 22.01350 -87.82584 17861 ft 359 kts 139°
2026-05-07 06:56 21.99538 -87.80798 17430 ft 357 kts 139°
2026-05-07 06:57 21.97707 -87.78990 16992 ft 355 kts 139°
2026-05-07 06:57 21.95879 -87.77186 16554 ft 353 kts 139°
2026-05-07 06:57 21.94075 -87.75404 16119 ft 351 kts 139°
2026-05-07 06:57 21.92286 -87.73640 15686 ft 349 kts 139°
2026-05-07 06:58 21.90511 -87.71889 15255 ft 347 kts 139°
2026-05-07 06:58 21.88710 -87.70113 14817 ft 345 kts 139°
2026-05-07 06:58 21.86946 -87.68377 14386 ft 343 kts 139°
2026-05-07 06:58 21.85169 -87.66628 13946 ft 342 kts 139°
2026-05-07 06:59 21.83433 -87.64920 13515 ft 340 kts 138°
2026-05-07 06:59 21.81700 -87.63214 13081 ft 339 kts 138°
2026-05-07 06:59 21.79961 -87.61504 12646 ft 337 kts 138°
2026-05-07 06:59 21.78226 -87.59798 12210 ft 336 kts 138°
2026-05-07 07:00 21.76505 -87.58104 11776 ft 334 kts 138°
2026-05-07 07:00 21.74806 -87.56435 11350 ft 333 kts 138°
2026-05-07 07:00 21.73082 -87.54740 10915 ft 331 kts 138°
2026-05-07 07:00 21.71380 -87.53067 10487 ft 329 kts 138°
2026-05-07 07:01 21.69715 -87.51431 10237 ft 322 kts 138°
2026-05-07 07:01 21.68079 -87.49824 10128 ft 310 kts 138°
2026-05-07 07:01 21.66522 -87.48296 9980 ft 300 kts 138°
2026-05-07 07:01 21.64984 -87.46787 9693 ft 296 kts 138°
2026-05-07 07:02 21.63416 -87.45349 9415 ft 292 kts 141°
2026-05-07 07:02 21.61857 -87.44005 9148 ft 287 kts 141°
2026-05-07 07:02 21.60283 -87.42659 8882 ft 283 kts 141°
2026-05-07 07:02 21.58763 -87.41359 8611 ft 280 kts 141°
2026-05-07 07:03 21.57237 -87.40054 8288 ft 278 kts 141°
2026-05-07 07:03 21.55721 -87.38756 7954 ft 277 kts 141°
2026-05-07 07:03 21.54226 -87.37476 7627 ft 276 kts 141°
2026-05-07 07:03 21.52723 -87.36189 7299 ft 275 kts 141°
2026-05-07 07:04 21.51217 -87.34900 6970 ft 273 kts 141°
2026-05-07 07:04 21.49729 -87.33627 6647 ft 272 kts 141°
2026-05-07 07:04 21.48266 -87.32375 6333 ft 271 kts 141°
2026-05-07 07:04 21.46786 -87.31109 6014 ft 270 kts 141°
2026-05-07 07:05 21.45319 -87.29852 5699 ft 268 kts 141°
2026-05-07 07:05 21.43853 -87.28601 5381 ft 267 kts 141°
2026-05-07 07:05 21.42409 -87.27370 5055 ft 267 kts 141°
2026-05-07 07:05 21.40945 -87.26115 4780 ft 264 kts 141°
2026-05-07 07:06 21.39542 -87.24915 4594 ft 258 kts 141°
2026-05-07 07:06 21.38103 -87.23764 4406 ft 253 kts 146°
2026-05-07 07:06 21.36582 -87.22832 4198 ft 249 kts 152°
2026-05-07 07:06 21.35071 -87.22008 4068 ft 236 kts 152°
2026-05-07 07:07 21.33617 -87.21228 4030 ft 233 kts 152°
2026-05-07 07:07 21.32172 -87.20450 4024 ft 232 kts 152°
2026-05-07 07:07 21.30738 -87.19675 4012 ft 224 kts 152°
2026-05-07 07:07 21.29378 -87.18999 4002 ft 212 kts 158°
2026-05-07 07:08 21.28002 -87.18454 4004 ft 206 kts 159°
2026-05-07 07:08 21.26657 -87.17938 3953 ft 207 kts 159°
2026-05-07 07:08 21.25267 -87.17403 3586 ft 213 kts 159°
2026-05-07 07:08 21.23881 -87.16871 3417 ft 209 kts 159°
2026-05-07 07:09 21.22560 -87.16256 3237 ft 205 kts 147°
2026-05-07 07:09 21.21398 -87.15393 3101 ft 200 kts 139°
2026-05-07 07:09 21.20416 -87.14349 3107 ft 192 kts 130°
2026-05-07 07:09 21.19638 -87.13254 3073 ft 178 kts 124°
2026-05-07 07:10 21.18967 -87.12180 3014 ft 164 kts 123°
2026-05-07 07:10 21.18369 -87.11201 2990 ft 152 kts 123°
2026-05-07 07:10 21.17793 -87.10264 3004 ft 151 kts 122°
2026-05-07 07:10 21.17204 -87.09311 3012 ft 152 kts 122°
2026-05-07 07:11 21.16615 -87.08363 3016 ft 151 kts 123°
2026-05-07 07:11 21.16035 -87.07433 3016 ft 151 kts 124°
2026-05-07 07:11 21.15441 -87.06488 3016 ft 151 kts 123°
2026-05-07 07:11 21.14855 -87.05554 3017 ft 151 kts 124°
2026-05-07 07:12 21.14267 -87.04619 3017 ft 151 kts 123°
2026-05-07 07:12 21.13669 -87.03668 3017 ft 151 kts 123°
2026-05-07 07:12 21.13078 -87.02730 2973 ft 152 kts 124°
2026-05-07 07:12 21.12491 -87.01794 2772 ft 151 kts 124°
2026-05-07 07:13 21.11905 -87.00862 2575 ft 150 kts 123°
2026-05-07 07:13 21.11320 -86.99931 2381 ft 150 kts 123°
2026-05-07 07:13 21.10737 -86.99000 2216 ft 150 kts 123°
2026-05-07 07:13 21.10157 -86.98077 2015 ft 146 kts 123°
2026-05-07 07:14 21.09628 -86.97233 1806 ft 137 kts 124°
2026-05-07 07:14 21.09097 -86.96387 1617 ft 136 kts 123°
2026-05-07 07:14 21.08564 -86.95537 1434 ft 135 kts 123°
2026-05-07 07:14 21.08038 -86.94704 1248 ft 136 kts 122°
2026-05-07 07:15 21.07514 -86.93858 1078 ft 135 kts 123°
2026-05-07 07:15 21.07002 -86.93024 904 ft 134 kts 123°
2026-05-07 07:15 21.06482 -86.92188 724 ft 134 kts 123°
2026-05-07 07:15 21.05948 -86.91348 555 ft 135 kts 123°
2026-05-07 07:16 21.05428 -86.90524 369 ft 134 kts 123°
2026-05-07 07:16 21.04905 -86.89693 200 ft 133 kts 123°
2026-05-07 07:16 21.04394 -86.88879 62 ft 132 kts 122°
2026-05-07 07:16 21.03915 -86.88096 30 ft 107 kts 124°
2026-05-07 07:17 21.03591 -86.87587 30 ft 57 kts 123°
2026-05-07 07:17 21.03474 -86.87375 30 ft 14 kts 80°
2026-05-07 07:17 21.03533 -86.87368 30 ft 8 kts 332°
2026-05-07 07:17 21.03594 -86.87376 30 ft 9 kts 31°
2026-05-07 07:18 21.03654 -86.87331 30 ft 12 kts 35°
2026-05-07 07:18 21.03652 -86.87244 30 ft 14 kts 123°
2026-05-07 07:18 21.03598 -86.87153 30 ft 14 kts 122°
2026-05-07 07:18 21.03544 -86.87064 30 ft 12 kts 122°
2026-05-07 07:19 21.03539 -86.86987 30 ft 10 kts 61°
2026-05-07 07:19 21.03576 -86.86954 30 ft 2 kts 33°
2026-05-07 07:19 21.03581 -86.86950 30 ft 1 kts 33°